Theta_e
311 311 310 310 310 311 311 310 310 312 311 312 311 311 309 308 309 313 316 314 311 309 307 309 313 314 315 316 319 320 323 324 323 323 322 323 323 325 326 325 326 333 340 351 353
313 311 311 310 311 311 310 310 310 310 311 311 312 309 309 309 313 316 314 309 307 309 318 319 318 317 314 316 316 320 322 321 321 322 322 323 324 324 324 325 325 328 353 352 352
313 312 311 311 310 310 310 310 309 311 312 312 312 310 308 311 317 318 310 308 309 313 317 317 316 317 316 316 316 316 320 320 321 321 321 322 322 324 324 324 325 326 351 352 352
313 312 311 310 309 310 309 309 310 310 312 312 310 309 308 313 320 318 312 310 308 313 313 316 318 319 316 316 318 316 318 318 319 320 321 321 322 322 323 324 325 325 329 349 349
309 311 311 310 308 309 309 310 311 311 311 310 309 308 313 318 318 319 312 313 316 313 314 315 318 319 320 318 316 316 316 318 319 320 320 320 320 321 321 323 324 325 326 339 348
307 308 308 308 308 309 309 310 310 310 311 311 310 309 315 320 314 317 316 314 314 315 316 316 316 317 319 318 318 317 316 317 317 319 320 320 320 321 321 322 322 323 325 329 347
304 305 306 308 309 308 309 310 311 310 310 310 309 312 316 318 314 314 314 315 315 315 316 315 315 316 317 319 319 317 317 316 317 317 317 319 320 320 321 321 321 322 325 330 345
303 304 306 308 309 308 309 309 309 310 310 309 308 313 320 315 314 315 316 316 316 316 314 312 312 313 314 315 317 319 318 318 317 317 318 318 321 321 321 322 320 321 324 330 341
303 305 307 308 308 308 309 308 310 312 310 310 314 317 321 314 315 317 317 317 316 315 313 312 312 313 313 313 314 316 318 318 318 317 318 318 318 320 321 322 322 323 324 330 334
303 307 307 307 307 310 310 310 314 312 315 316 317 319 319 319 318 318 318 316 316 315 315 315 315 314 314 314 314 314 315 316 317 317 317 318 318 318 320 322 322 323 324 327 331
303 307 308 307 310 310 311 315 318 320 319 319 318 320 319 317 317 319 318 317 317 317 317 317 318 317 314 314 313 313 317 318 317 318 317 318 318 319 319 321 323 323 323 325 332
304 310 309 311 311 311 313 322 317 316 318 318 318 318 317 317 319 319 319 320 319 319 318 318 320 318 316 315 314 314 313 313 314 317 319 318 318 318 319 321 322 324 323 325 331
306 311 311 311 313 313 319 316 315 317 319 321 319 317 318 317 319 319 320 320 321 319 319 320 317 318 318 318 317 316 315 316 314 316 318 318 317 318 319 320 322 324 324 327 331
306 309 311 312 313 318 314 315 317 317 325 316 316 317 316 317 320 320 320 321 320 321 319 320 318 318 318 320 318 317 315 316 315 316 318 319 319 319 320 321 323 324 324 326 328
305 309 312 314 315 317 313 316 319 320 330 315 316 314 316 321 321 320 319 320 323 323 322 323 320 320 324 319 318 319 317 318 319 317 324 324 321 318 321 321 323 325 324 325 328
306 310 311 313 313 312 314 317 321 328 316 316 315 315 317 319 322 319 321 321 321 323 324 323 321 321 323 319 318 319 319 320 324 323 327 328 323 321 320 323 323 324 324 325 326
308 310 314 312 311 312 316 320 328 318 314 315 315 315 316 316 316 316 317 321 324 325 327 323 323 321 321 320 318 319 323 323 324 326 324 320 326 327 320 323 323 325 325 325 326
308 313 314 314 312 313 317 323 315 314 313 314 314 316 316 316 316 316 317 320 319 320 323 327 326 324 321 320 320 319 321 324 332 322 318 320 325 325 322 322 324 323 325 325 325
310 317 319 309 312 314 320 315 314 314 313 314 315 315 316 316 315 316 319 321 319 318 323 324 324 321 320 321 319 322 324 320 324 329 333 323 323 322 321 323 325 324 326 326 326
309 319 315 310 313 315 318 312 314 313 313 314 316 316 317 316 316 315 320 320 320 316 317 319 327 324 324 321 321 324 323 328 331 338 331 324 325 324 324 326 327 325 326 327 327
314 318 315 312 314 317 316 315 314 314 314 314 315 316 316 317 316 315 318 320 318 316 318 320 322 327 325 320 320 324 327 325 323 327 336 328 330 333 334 326 327 326 326 327 327
317 317 314 313 315 315 316 315 313 314 314 313 314 315 316 315 315 316 317 318 317 316 319 321 325 330 327 324 320 320 325 326 330 334 334 335 338 332 330 329 327 326 326 327 328
318 316 314 313 315 315 317 316 315 314 314 313 314 315 316 315 316 316 316 316 315 317 319 319 326 328 327 323 321 320 326 328 327 326 335 340 339 332 331 330 327 325 327 330 331
317 314 314 313 316 315 316 317 314 313 313 313 314 315 314 315 316 316 318 316 315 316 317 319 325 328 327 328 327 330 321 325 327 331 333 331 334 338 341 332 332 329 332 333 335
313 313 314 312 316 315 315 314 313 313 313 314 314 314 314 317 316 317 316 317 317 319 319 321 326 325 326 327 330 326 320 324 323 325 329 329 328 333 338 341 341 340 340 335 335
311 309 311 314 315 315 313 313 312 312 314 314 314 314 315 317 318 319 318 319 318 318 320 321 325 325 328 325 321 319 321 319 322 324 326 327 337 334 334 335 336 335 332 340 340
311 307 312 313 313 312 312 312 310 313 314 314 314 315 316 317 316 318 319 319 319 320 322 322 324 326 330 328 331 323 332 327 328 328 328 331 334 330 331 329 325 326 325 333 331
Wind_Speed
20 18 17 16 15 14 13 13 13 14 14 16 18 16 17 19 21 20 17 5 4 13 15 12 13 14 16 16 20 21 17 20 29 29 22 23 27 25 25 26 23 16 2 20 25
21 20 18 16 15 15 14 13 13 14 15 16 18 17 17 18 20 17 3 3 5 4 6 12 11 11 13 14 16 19 18 29 25 25 25 27 26 26 25 23 20 20 20 22 25
22 20 20 17 15 14 14 14 14 15 15 16 17 17 17 16 13 4 7 4 4 5 9 16 15 13 17 16 19 22 23 26 24 26 29 28 29 27 27 22 19 22 18 17 20
23 22 20 18 16 15 14 14 14 14 15 16 16 15 15 11 4 10 1 1 4 6 10 14 11 13 15 18 19 24 27 27 27 29 25 26 29 27 24 22 15 19 18 22 19
24 22 22 19 17 15 14 14 14 14 15 15 13 12 11 7 6 9 1 1 5 10 11 12 14 15 17 16 19 25 25 27 26 25 26 28 27 24 25 20 16 14 22 20 19
25 24 23 21 17 16 15 15 15 15 14 14 11 9 7 12 6 6 1 5 11 12 13 13 14 16 19 18 21 21 25 23 26 23 25 24 25 23 22 19 20 17 18 13 25
27 25 25 23 20 17 15 15 15 15 14 11 6 7 12 15 1 4 7 10 12 12 11 15 15 14 15 20 18 18 24 22 24 22 24 24 25 28 23 18 22 24 19 14 25
30 28 26 23 21 17 15 15 14 13 10 6 5 7 7 4 3 10 11 15 11 8 12 13 14 17 15 17 22 23 20 18 24 25 21 25 25 25 25 22 23 26 21 15 8
36 31 27 24 20 16 14 14 10 7 6 3 5 9 5 4 9 4 8 10 12 9 9 10 10 12 13 15 15 17 21 24 23 22 24 24 29 27 24 26 23 22 20 15 13
39 32 28 22 16 12 12 11 8 5 5 7 13 8 8 9 9 14 13 3 10 11 13 11 11 10 12 11 13 18 22 22 23 22 24 28 26 27 26 25 24 22 21 15 16
40 33 25 16 11 10 12 6 3 5 15 12 17 14 14 15 15 11 6 9 12 10 13 9 11 13 15 13 15 18 20 26 26 27 26 25 26 26 23 25 24 23 21 18 14
37 27 18 13 10 7 5 7 14 12 15 18 7 8 13 1 9 5 9 13 15 13 20 17 16 20 15 15 14 16 21 26 24 26 26 25 26 24 23 25 26 23 25 22 18
30 20 15 15 12 9 11 19 17 12 7 2 7 10 7 8 8 13 6 11 19 21 20 23 22 10 9 19 17 17 19 21 23 26 27 21 24 21 22 24 24 21 25 20 17
25 17 14 18 8 17 19 18 14 12 4 4 12 4 13 17 8 13 11 13 16 20 20 20 20 11 8 13 20 19 19 22 20 20 16 19 15 20 22 22 23 21 26 22 19
23 13 15 12 14 14 21 14 11 3 2 10 9 20 17 9 4 7 8 7 13 24 21 31 26 11 23 14 18 22 8 8 14 18 15 24 12 15 23 20 24 20 21 22 20
24 10 17 12 8 19 19 15 9 5 6 9 21 21 19 10 5 3 4 5 9 13 21 31 26 21 15 17 6 12 5 12 12 6 7 21 18 18 20 24 23 20 17 19 19
20 9 12 13 18 19 16 11 6 9 19 16 25 23 23 11 14 14 12 8 8 9 9 24 16 11 11 17 12 15 8 2 5 7 15 18 16 21 24 27 29 24 22 20 22
18 11 12 13 19 16 15 11 5 17 15 21 18 23 13 20 19 19 14 10 9 14 10 11 16 12 7 14 14 6 10 3 6 12 12 22 18 23 23 24 30 29 26 25 21
25 12 7 18 17 17 10 7 9 14 16 18 20 14 19 21 17 23 11 5 7 13 6 7 8 21 21 11 13 3 8 7 5 19 6 16 24 23 23 20 29 29 25 25 21
20 10 11 19 18 18 8 3 11 13 14 16 15 12 21 20 20 21 12 4 6 6 3 5 9 21 21 12 9 9 7 2 4 5 4 8 7 12 17 18 24 28 27 24 21
6 5 9 24 17 6 8 8 12 13 14 12 16 17 17 18 20 22 12 3 4 12 8 6 2 16 27 9 7 7 3 5 2 4 4 6 8 9 8 16 22 25 26 22 22
10 6 12 20 7 9 9 10 10 13 14 9 11 13 16 20 18 12 20 7 5 5 10 5 5 12 26 21 9 4 11 9 2 5 8 7 2 14 19 12 23 25 25 21 24
8 10 2 7 7 9 12 10 15 15 13 10 11 13 16 15 14 18 11 7 0 12 6 7 4 9 18 9 5 3 11 16 7 3 9 5 5 15 17 18 15 23 23 22 23
6 6 7 9 8 12 14 13 16 13 8 15 13 13 16 17 16 13 13 15 13 5 1 6 4 7 4 19 20 17 3 16 7 0 3 3 10 10 16 11 4 16 18 18 17
6 6 6 6 11 13 15 12 20 16 15 15 9 16 17 18 14 13 19 20 19 1 8 1 8 15 19 25 29 21 8 12 0 5 8 13 11 8 12 18 18 27 25 20 19
6 6 8 15 12 17 9 14 16 21 18 11 13 17 16 14 16 21 19 15 8 10 12 11 5 16 19 14 12 4 4 4 8 4 14 10 9 14 13 15 20 23 19 22 23
15 12 7 11 14 14 14 17 20 18 8 16 15 15 17 18 19 18 15 11 12 14 14 8 7 12 7 22 24 3 21 16 16 26 12 7 11 12 14 13 17 15 18 15 17
Wind_Direction
350 346 341 337 333 327 325 324 326 327 330 330 328 320 318 317 317 302 252 280 292 294 305 287 272 260 249 248 248 244 244 247 248 250 257 260 262 259 236 239 255 239 153 120 123
348 347 343 337 329 325 321 320 320 322 326 328 324 321 319 320 310 284 194 309 302 305 303 282 296 262 238 245 232 235 243 243 254 260 261 269 267 264 264 221 218 235 101 118 138
349 346 343 335 329 321 317 314 315 315 314 318 318 318 318 323 293 83 131 332 312 301 283 287 285 274 273 246 243 232 245 253 253 252 267 270 265 267 266 256 200 216 141 145 144
348 346 342 335 325 318 312 307 307 310 311 313 317 319 315 310 339 132 88 284 296 294 292 279 271 265 262 261 250 250 246 249 253 266 266 257 268 272 278 280 223 204 231 160 165
350 345 341 334 324 315 308 305 305 307 309 313 319 324 329 236 263 142 3 207 272 262 284 298 292 285 274 269 264 258 252 255 251 255 263 270 274 272 266 275 300 216 217 193 173
353 345 340 334 323 313 308 304 304 305 307 308 311 323 282 283 89 158 240 283 277 290 291 294 286 289 288 290 285 284 277 263 257 254 255 261 262 265 268 269 288 274 253 227 170
353 347 339 332 324 314 307 304 307 306 308 300 291 297 275 260 309 279 265 276 293 298 296 298 298 282 285 286 278 278 272 275 271 252 252 256 255 252 258 259 260 265 255 241 173
351 343 336 328 324 315 307 305 314 310 311 303 285 276 266 3 260 281 278 278 276 262 292 299 295 286 283 287 283 275 282 266 249 249 246 248 245 240 242 253 251 253 253 223 222
352 341 335 328 322 314 310 309 313 306 303 289 264 220 309 224 239 244 305 306 310 295 271 289 295 280 287 271 269 254 258 254 255 249 243 236 241 244 236 234 244 251 249 207 213
352 339 336 330 321 318 323 307 276 288 271 242 253 270 243 293 338 314 284 284 292 297 271 227 259 239 235 234 261 278 269 245 251 258 229 236 234 238 244 232 230 240 248 222 214
351 346 343 337 336 329 325 291 237 196 230 272 285 240 283 332 331 306 311 257 259 259 268 247 252 271 290 286 291 292 270 279 284 287 257 238 234 237 230 248 226 216 241 234 198
352 350 350 348 328 307 300 281 358 310 310 286 269 271 290 181 281 27 287 284 287 267 270 263 244 259 277 272 269 274 274 278 267 277 276 247 242 228 228 231 244 201 225 234 177
353 354 353 348 328 289 235 348 335 340 299 295 253 279 298 258 299 295 239 302 283 285 285 288 291 349 261 294 258 252 264 258 264 266 273 267 243 230 225 227 233 215 214 223 181
353 351 346 342 330 320 355 339 339 345 265 30 359 13 285 286 29 353 343 285 290 293 298 292 288 278 253 259 273 275 255 256 259 266 265 274 252 222 227 222 222 243 196 214 202
354 350 345 327 306 323 339 337 344 266 325 15 353 327 305 51 266 319 298 307 330 303 299 281 288 263 299 272 251 277 297 323 292 257 281 270 256 238 215 204 216 229 193 202 189
348 316 344 357 295 327 331 324 295 243 353 6 349 330 333 349 148 295 222 174 262 297 286 283 290 282 262 268 223 102 339 275 294 258 262 246 242 237 207 192 209 212 220 199 205
345 312 309 303 332 333 331 302 257 25 341 349 338 325 309 8 357 334 323 30 24 336 343 302 287 271 221 250 244 238 176 253 236 209 235 214 223 239 219 192 196 205 213 230 202
342 300 308 293 339 335 313 284 342 3 358 337 330 312 352 358 355 340 330 354 43 8 314 334 323 360 238 218 249 260 165 182 274 213 215 221 208 222 219 215 194 198 201 217 210
347 295 263 345 333 329 310 37 360 354 342 335 320 345 341 356 346 333 8 40 23 29 353 313 290 317 305 241 241 40 226 192 240 258 235 205 206 209 224 226 184 188 206 210 209
333 298 18 342 327 310 319 359 356 359 346 335 330 336 335 344 342 334 9 65 3 339 120 285 293 299 283 236 207 169 142 249 242 312 276 165 204 203 190 214 204 181 194 200 205
300 285 10 346 314 302 22 0 351 335 346 332 322 318 339 332 338 326 26 72 335 355 325 251 311 293 304 230 260 178 81 48 7 254 271 193 176 2 330 162 167 182 180 195 193
305 332 17 346 10 354 16 317 335 339 0 337 320 337 320 337 331 326 332 18 42 330 334 341 282 295 298 277 292 174 165 189 42 321 315 284 223 343 312 213 170 172 176 188 187
308 305 74 287 11 358 352 332 336 354 354 351 323 319 329 335 328 326 337 308 93 11 9 352 329 326 331 279 168 260 111 96 90 332 259 278 308 340 322 305 168 166 174 165 184
288 337 336 314 14 352 338 327 336 357 354 327 320 328 339 326 333 308 349 342 4 23 347 172 263 257 262 288 300 299 6 119 144 9 291 67 335 30 306 132 81 143 151 163 198
332 351 14 305 328 317 315 322 339 345 338 328 335 340 330 319 331 331 331 330 333 112 336 244 293 314 297 272 264 252 350 145 185 316 51 14 340 199 33 33 37 26 352 166 188
357 337 329 297 310 301 334 352 331 336 335 340 330 329 319 319 342 317 321 317 303 332 329 315 294 316 303 316 331 8 2 74 29 3 69 71 35 47 18 35 37 37 14 52 60
354 337 299 294 312 324 351 328 329 334 331 324 319 325 320 340 315 301 285 272 269 286 299 307 320 329 304 342 319 331 354 329 63 62 101 52 11 23 5 27 49 44 14 49 72